Tracking 35051 objects as of 17-Aug-2026
HD Live streaming from Space Station
objects crossing your sky now

COSMOS 1049 DEB


COSMOS 1049 DEB is no longer on orbit


NORAD ID: 11125
Int'l Code: 1978-107C
Launch date: November 21, 1978
Source: Commonwealth of Independent States (former USSR) (CIS)
Launch site: PLESETSK MISSILE AND SPACE COMPLEX (PKMTR)
Decay date: 1978-12-10

Note: This is SATELLITE DEBRIS
Your satellite tracking list
Your tracking list is empty




NASA's NSSDC Master Catalog

Two Line Element Set (TLE):
1 11125U 78107  C 78338.24397753  .01524668 +00000-0 +00000-0 0  9994
2 11125 072.8354 212.2877 0082096 050.1762 311.8499 16.22932434002054
Source of the keplerian elements: AFSPC